Terminal Aerodrome Forecast
Issued by NWS Wilmington, OH

Current Version | Previous Version | Graphics & Text | Print | Product List | Glossary On
Versions: 1 2 3 4 5 6 7 8 9 10 11 12 13 14 15 16 17
000
FTUS41 KILN 131000 AAA
TAFCMH
TAF AMD
KCMH 131039Z 1311/1406 30010KT 5SM BR OVC010
      TEMPO 1311/1313 25005KT P6SM NSW OVC040
     FM131400 32011KT P6SM SCT035
     FM132200 34005KT P6SM SKC=

USA.gov is the U.S. government's official web portal to all federal, state and local government web resources and services.